Regional Weather Roundup
Issued by NWS

Home | Current Version | Previous Version | Graphics & Text | Print | Product List | Glossary On
Versions: 1 2 3 4 5 6 7 8 9 10 11 12 13 14 15 16 17 18 19 20 21 22 23 24 25 26 27 28 29 30 31 32 33 34 35 36 37 38 39 40 41 42 43 44 45 46 47 48 49 50
000
ASUS43 KLSX 240059
RWRMO

WEATHER SUMMARY FOR MISSOURI
NATIONAL WEATHER SERVICE SPRINGFIELD MO
800 PM CDT THU MAR 23 2017

NOTE: "FAIR" INDICATES FEW OR NO CLOUDS BELOW 12,000 FEET WITH NO
       SIGNIFICANT WEATHER AND/OR OBSTRUCTIONS TO VISIBILITY.
       CURRENT SKY AND/OR WEATHER CONDITIONS ARE NOT AVAILABLE FOR
       CHILLICOTHE AND FARMINGTON.

MOZ001>031-035>038-043-044-053-054-240200-
...NORTHERN AND WESTERN MISSOURI...

CITY           SKY/WX    TMP DP  RH WIND       PRES   REMARKS
KANSAS CTY INT PTCLDY    72  45  37 S17G28    29.77S
KANSAS C DTWN  CLEAR     75  43  31 S13G22    29.77F
LEE`S SUMMIT   CLEAR     74  46  36 S16G28    29.80S
ST JOSEPH      PTCLDY    74  49  41 S21       29.74R
CHILLICOTHE      N/A     74  47  38 S10       29.81S
KIRKSVILLE     CLEAR     58  41  53 SE14      29.85S

$$
MOZ066>068-077>081-088>096-101>105-240200-
...SOUTHWEST MISSOURI...

CITY           SKY/WX    TMP DP  RH WIND       PRES   REMARKS
SPRINGFIELD    CLEAR     71  45  39 S17       29.91S
JOPLIN         CLEAR     72  48  42 S16G22    29.87R
BRANSON        PTCLDY    68  50  52 SE10      29.98S

$$
MOZ032>034-039>042-045>050-055>058-069>072-240200-
...CENTRAL MISSOURI...

CITY           SKY/WX    TMP DP  RH WIND       PRES   REMARKS
COLUMBIA       CLEAR     72  49  44 S14       29.89S
JEFFERSON CITY CLEAR     75  51  43 S13       29.89F
ROLLA          CLEAR     68  50  52 S15       29.94F
SEDALIA        CLEAR     73  48  41 S18       29.86S
WARRENSBURG    CLEAR     72  45  37 S12       29.82S
OSAGE BEACH    CLEAR    N/A N/A N/A S9G21     29.92S

$$
MOZ051-052-059>065-240200-
...EAST CENTRAL MISSOURI...

CITY           SKY/WX    TMP DP  RH WIND       PRES   REMARKS
ST LOUIS INTL  PTCLDY    62  41  46 SE20G28   30.01S
SPIRIT OF STL  CLEAR     62  41  46 SE9       29.98S
ST CHARLES     CLEAR     56  44  64 SE14      29.99S

$$
MOZ072>076-082>087-097>100-106>115-240200-
...SOUTH CENTRAL AND SOUTHEAST MISSOURI...

CITY           SKY/WX    TMP DP  RH WIND       PRES   REMARKS
CAPE GIRARDEAU CLEAR     60  44  55 SE12      30.09F
FARMINGTON     CLEAR     59  45  59 SE8       30.07R
POPLAR BLUFF   CLEAR     62  51  67 SE3       30.07F
WEST PLAINS    CLEAR     66  50  56 SE12      30.04S

$$




USA.gov is the U.S. government's official web portal to all federal, state and local government web resources and services.